Location: ??
(34.7707°N, 135.6540°E)
Time: 08:42:16
(UTC+00:00)

Meteor 2-13 Rocket - Pass Details

Date: 09 April 2020
Orbit: 937 x 957 km, 82.5° (Epoch: 30 May)

Event Time Altitude Azimuth Distance (km) Brightness Sun altitude
Rises 19:43:34 0° 196° (SSW) 3,579 7.1 -10.5°
Reaches altitude 10° 19:46:05 10° 200° (SSW) 2,638 6.4 -10.1°
Maximum altitude 19:52:00 58° 279° (W) 1,086 4.5 -8.9°
Drops below altitude 10° 19:57:58 10° 358° (N) 2,658 7.0 -7.7°
Sets 20:00:31 0° 2° (N) 3,608 7.7 -7.2°
